Time,TemperatureF,DewpointF,PressureIn,WindDirection,WindDirectionDegrees,WindSpeedMPH,WindSpeedGustMPH,Humidity,HourlyPrecipIn,Conditions,Clouds,dailyrainin,SoftwareType,DateUTC
2013-08-28 00:02:00,79.2,64.6,-100.00,SSW,198,0.0,6.0,61,0.00,,,0.00,meteohub,2013-08-28 05:02:00,
2013-08-28 00:07:00,79.0,64.8,-100.00,South,191,0.0,6.0,62,0.00,,,0.00,meteohub,2013-08-28 05:07:00,
2013-08-28 00:13:00,79.0,64.8,-100.00,SSW,192,0.0,5.0,62,0.00,,,0.00,meteohub,2013-08-28 05:13:00,
2013-08-28 00:18:00,78.6,64.6,-100.00,SSW,195,0.0,5.0,62,0.00,,,0.00,meteohub,2013-08-28 05:18:00,
2013-08-28 00:23:00,78.4,64.8,-100.00,SSW,210,0.0,6.0,63,0.00,,,0.00,meteohub,2013-08-28 05:23:00,
2013-08-28 00:28:00,78.4,64.8,-100.00,SW,223,0.0,6.0,63,0.00,,,0.00,meteohub,2013-08-28 05:28:00,
2013-08-28 00:36:00,78.3,64.6,-100.00,SW,234,0.0,6.0,63,0.00,,,0.00,meteohub,2013-08-28 05:36:00,
2013-08-28 00:41:00,78.1,64.9,-100.00,SW,217,0.0,6.0,64,0.00,,,0.00,meteohub,2013-08-28 05:41:00,
2013-08-28 00:47:00,78.3,65.1,-100.00,SW,217,0.0,6.0,64,0.00,,,0.00,meteohub,2013-08-28 05:47:00,
2013-08-28 00:55:00,78.3,65.1,-100.00,SW,222,0.0,6.0,64,0.00,,,0.00,meteohub,2013-08-28 05:55:00,
2013-08-28 01:01:00,78.1,64.9,-100.00,SW,227,0.0,5.0,64,0.00,,,0.00,meteohub,2013-08-28 06:01:00,
2013-08-28 01:07:00,77.9,64.8,-100.00,SW,221,0.0,9.0,64,0.00,,,0.00,meteohub,2013-08-28 06:07:00,
2013-08-28 01:12:00,77.9,64.8,-100.00,SSW,206,0.0,7.0,64,0.00,,,0.00,meteohub,2013-08-28 06:12:00,
2013-08-28 01:19:00,77.7,64.9,-100.00,SW,227,0.0,7.0,65,0.00,,,0.00,meteohub,2013-08-28 06:19:00,
2013-08-28 01:24:00,77.5,64.8,-100.00,WSW,240,0.0,7.0,65,0.00,,,0.00,meteohub,2013-08-28 06:24:00,
2013-08-28 01:29:00,77.5,64.8,-100.00,WSW,244,0.0,7.0,65,0.00,,,0.00,meteohub,2013-08-28 06:29:00,
2013-08-28 01:34:00,77.5,64.8,-100.00,SW,225,6.0,7.0,65,0.00,,,0.00,meteohub,2013-08-28 06:34:00,
2013-08-28 01:39:00,77.5,64.8,-100.00,SW,229,2.0,9.0,65,0.00,,,0.00,meteohub,2013-08-28 06:39:00,
2013-08-28 01:44:00,77.5,64.8,-100.00,WSW,240,9.0,10.0,65,0.00,,,0.00,meteohub,2013-08-28 06:44:00,
2013-08-28 01:49:00,77.4,65.1,-100.00,SW,232,5.0,10.0,66,0.00,,,0.00,meteohub,2013-08-28 06:49:00,
2013-08-28 01:56:00,77.4,65.1,-100.00,WSW,239,0.0,10.0,66,0.00,,,0.00,meteohub,2013-08-28 06:56:00,
2013-08-28 02:01:00,77.4,65.1,-100.00,WSW,238,0.0,13.0,66,0.00,,,0.00,meteohub,2013-08-28 07:01:00,
2013-08-28 02:06:00,77.2,64.9,-100.00,SW,229,7.0,13.0,66,0.00,,,0.00,meteohub,2013-08-28 07:06:00,
2013-08-28 02:12:00,77.2,64.9,-100.00,WSW,238,0.0,13.0,66,0.00,,,0.00,meteohub,2013-08-28 07:12:00,
2013-08-28 02:19:00,77.0,65.1,-100.00,WSW,240,0.0,12.0,67,0.00,,,0.00,meteohub,2013-08-28 07:19:00,
2013-08-28 02:24:00,76.8,64.9,-100.00,SW,235,6.0,12.0,67,0.00,,,0.00,meteohub,2013-08-28 07:24:00,
2013-08-28 02:29:00,76.6,64.9,-100.00,SW,236,2.0,12.0,67,0.00,,,0.00,meteohub,2013-08-28 07:29:00,
2013-08-28 02:34:00,76.6,65.3,-100.00,SW,233,7.0,11.0,68,0.00,,,0.00,meteohub,2013-08-28 07:34:00,
2013-08-28 02:39:00,76.6,65.3,-100.00,SW,234,3.0,11.0,68,0.00,,,0.00,meteohub,2013-08-28 07:39:00,
2013-08-28 02:45:00,76.6,65.3,-100.00,SW,228,0.0,11.0,68,0.00,,,0.00,meteohub,2013-08-28 07:45:00,
2013-08-28 02:52:00,76.5,65.1,-100.00,WSW,243,0.0,10.0,68,0.00,,,0.00,meteohub,2013-08-28 07:52:00,
2013-08-28 03:00:00,76.5,65.5,-100.00,SW,218,0.0,11.0,69,0.00,,,0.00,meteohub,2013-08-28 08:00:00,
2013-08-28 03:05:00,76.3,65.3,-100.00,SW,226,0.0,11.0,69,0.00,,,0.00,meteohub,2013-08-28 08:05:00,
2013-08-28 03:12:00,76.3,65.3,-100.00,WSW,244,0.0,6.0,69,0.00,,,0.00,meteohub,2013-08-28 08:12:00,
2013-08-28 03:19:00,76.3,65.8,-100.00,WSW,257,0.0,9.0,70,0.00,,,0.00,meteohub,2013-08-28 08:19:00,
2013-08-28 03:24:00,76.1,65.7,-100.00,SW,222,0.0,9.0,70,0.00,,,0.00,meteohub,2013-08-28 08:24:00,
2013-08-28 03:29:00,76.1,65.7,-100.00,SW,231,0.0,9.0,70,0.00,,,0.00,meteohub,2013-08-28 08:29:00,
2013-08-28 03:34:00,76.1,65.7,-100.00,SW,225,4.0,12.0,70,0.00,,,0.00,meteohub,2013-08-28 08:34:00,
2013-08-28 03:40:00,75.9,65.5,-100.00,SW,227,2.0,12.0,70,0.00,,,0.00,meteohub,2013-08-28 08:40:00,
2013-08-28 03:45:00,75.9,65.8,-100.00,SW,229,0.0,12.0,71,0.00,,,0.00,meteohub,2013-08-28 08:45:00,
2013-08-28 03:51:00,75.7,65.7,-100.00,SW,232,0.0,7.0,71,0.00,,,0.00,meteohub,2013-08-28 08:51:00,
2013-08-28 03:59:00,75.6,65.8,-100.00,SW,236,0.0,7.0,72,0.00,,,0.00,meteohub,2013-08-28 08:59:00,
2013-08-28 04:04:00,75.4,65.7,-100.00,SW,233,0.0,4.0,72,0.00,,,0.00,meteohub,2013-08-28 09:04:00,
2013-08-28 04:09:00,75.0,65.3,-100.00,SW,229,0.0,4.0,72,0.00,,,0.00,meteohub,2013-08-28 09:09:00,
2013-08-28 04:14:00,75.0,65.8,-100.00,SW,226,0.0,4.0,73,0.00,,,0.00,meteohub,2013-08-28 09:14:00,
2013-08-28 04:19:00,75.0,65.8,-100.00,SW,225,0.0,5.0,73,0.00,,,0.00,meteohub,2013-08-28 09:19:00,
2013-08-28 04:24:00,75.0,65.8,-100.00,SW,225,0.0,5.0,73,0.00,,,0.00,meteohub,2013-08-28 09:24:00,
2013-08-28 04:29:00,74.8,65.7,-100.00,West,276,0.0,3.0,73,0.00,,,0.00,meteohub,2013-08-28 09:29:00,
2013-08-28 04:33:00,74.8,65.7,-100.00,West,273,0.0,5.0,73,0.00,,,0.00,meteohub,2013-08-28 09:33:00,
2013-08-28 04:38:00,74.7,65.5,-100.00,West,269,2.0,5.0,73,0.00,,,0.00,meteohub,2013-08-28 09:38:00,
2013-08-28 04:43:00,74.7,65.8,-100.00,WSW,241,0.0,5.0,74,0.00,,,0.00,meteohub,2013-08-28 09:43:00,
2013-08-28 04:48:00,74.7,65.5,-100.00,SW,219,0.0,6.0,73,0.00,,,0.00,meteohub,2013-08-28 09:48:00,
2013-08-28 04:56:00,74.8,65.7,-100.00,SW,227,0.0,10.0,73,0.00,,,0.00,meteohub,2013-08-28 09:56:00,
2013-08-28 05:01:00,74.8,65.7,-100.00,West,261,0.0,4.0,73,0.00,,,0.00,meteohub,2013-08-28 10:01:00,
2013-08-28 05:06:00,74.8,65.7,-100.00,WSW,254,0.0,4.0,73,0.00,,,0.00,meteohub,2013-08-28 10:06:00,
2013-08-28 05:11:00,74.8,65.7,-100.00,WSW,246,0.0,4.0,73,0.00,,,0.00,meteohub,2013-08-28 10:11:00,
2013-08-28 05:19:00,74.8,65.7,-100.00,West,275,0.0,1.0,73,0.00,,,0.00,meteohub,2013-08-28 10:19:00,
2013-08-28 05:24:00,74.8,66.0,-100.00,SW,215,1.0,7.0,74,0.00,,,0.00,meteohub,2013-08-28 10:24:00,
2013-08-28 05:29:00,74.8,66.0,-100.00,West,267,0.0,7.0,74,0.00,,,0.00,meteohub,2013-08-28 10:29:00,
2013-08-28 05:34:00,74.8,66.0,-100.00,WSW,251,0.0,7.0,74,0.00,,,0.00,meteohub,2013-08-28 10:34:00,
2013-08-28 05:39:00,74.8,66.0,-100.00,West,265,0.0,7.0,74,0.00,,,0.00,meteohub,2013-08-28 10:39:00,
2013-08-28 05:44:00,74.7,65.8,-100.00,WSW,250,0.0,7.0,74,0.00,,,0.00,meteohub,2013-08-28 10:44:00,
2013-08-28 05:49:00,74.8,66.0,-100.00,WSW,244,0.0,8.0,74,0.00,,,0.00,meteohub,2013-08-28 10:49:00,
2013-08-28 05:54:00,74.7,65.8,-100.00,West,275,0.0,8.0,74,0.00,,,0.00,meteohub,2013-08-28 10:54:00,
2013-08-28 05:59:00,74.7,65.8,-100.00,SW,227,0.0,8.0,74,0.00,,,0.00,meteohub,2013-08-28 10:59:00,
2013-08-28 06:04:00,74.5,66.0,-100.00,West,265,0.0,6.0,75,0.00,,,0.00,meteohub,2013-08-28 11:04:00,
2013-08-28 06:09:00,74.5,66.0,-100.00,West,265,0.0,6.0,75,0.00,,,0.00,meteohub,2013-08-28 11:09:00,
2013-08-28 06:14:00,74.5,66.0,-100.00,WSW,253,0.0,6.0,75,0.00,,,0.00,meteohub,2013-08-28 11:14:00,
2013-08-28 06:19:00,74.5,66.0,-100.00,WSW,244,0.0,4.0,75,0.00,,,0.00,meteohub,2013-08-28 11:19:00,
2013-08-28 06:24:00,74.7,65.8,-100.00,SW,236,0.0,5.0,74,0.00,,,0.00,meteohub,2013-08-28 11:24:00,
2013-08-28 06:29:00,74.5,66.0,-100.00,SW,229,1.0,5.0,75,0.00,,,0.00,meteohub,2013-08-28 11:29:00,
2013-08-28 06:34:00,74.5,66.0,-100.00,SW,222,0.0,5.0,75,0.00,,,0.00,meteohub,2013-08-28 11:34:00,
2013-08-28 06:39:00,74.5,66.0,-100.00,SW,225,0.0,5.0,75,0.00,,,0.00,meteohub,2013-08-28 11:39:00,
2013-08-28 06:44:00,74.5,66.0,-100.00,SW,224,0.0,6.0,75,0.00,,,0.00,meteohub,2013-08-28 11:44:00,
2013-08-28 06:49:00,74.5,66.0,-100.00,SW,222,0.0,9.0,75,0.00,,,0.00,meteohub,2013-08-28 11:49:00,
2013-08-28 06:54:00,74.5,66.0,-100.00,SW,228,0.0,9.0,75,0.00,,,0.00,meteohub,2013-08-28 11:54:00,
2013-08-28 06:59:00,74.8,66.4,-100.00,SW,229,0.0,7.0,75,0.00,,,0.00,meteohub,2013-08-28 11:59:00,
2013-08-28 07:04:00,75.0,66.2,-100.00,WSW,256,1.0,7.0,74,0.00,,,0.00,meteohub,2013-08-28 12:04:00,
2013-08-28 07:09:00,75.4,66.6,-100.00,SW,230,0.0,7.0,74,0.00,,,0.00,meteohub,2013-08-28 12:09:00,
2013-08-28 07:14:00,75.6,66.7,-100.00,West,261,0.0,6.0,74,0.00,,,0.00,meteohub,2013-08-28 12:14:00,
2013-08-28 07:19:00,75.7,66.4,-100.00,SW,228,6.0,6.0,73,0.00,,,0.00,meteohub,2013-08-28 12:19:00,
2013-08-28 07:24:00,76.3,66.9,-100.00,West,259,0.0,6.0,73,0.00,,,0.00,meteohub,2013-08-28 12:24:00,
2013-08-28 07:29:00,76.6,66.9,-100.00,WSW,240,5.0,13.0,72,0.00,,,0.00,meteohub,2013-08-28 12:29:00,
2013-08-28 07:34:00,76.8,66.7,-100.00,WSW,244,0.0,13.0,71,0.00,,,0.00,meteohub,2013-08-28 12:34:00,
2013-08-28 07:39:00,77.4,66.7,-100.00,WNW,299,4.0,13.0,70,0.00,,,0.00,meteohub,2013-08-28 12:39:00,
2013-08-28 07:44:00,77.9,67.3,-100.00,West,266,4.0,11.0,70,0.00,,,0.00,meteohub,2013-08-28 12:44:00,
2013-08-28 07:49:00,78.4,67.5,-100.00,WSW,258,7.0,11.0,69,0.00,,,0.00,meteohub,2013-08-28 12:49:00,
2013-08-28 07:54:00,78.6,67.1,-100.00,West,267,0.0,12.0,68,0.00,,,0.00,meteohub,2013-08-28 12:54:00,
2013-08-28 07:59:00,79.3,67.5,-100.00,West,268,0.0,12.0,67,0.00,,,0.00,meteohub,2013-08-28 12:59:00,
2013-08-28 08:04:00,79.9,68.0,-100.00,WNW,292,1.0,12.0,67,0.00,,,0.00,meteohub,2013-08-28 13:04:00,
2013-08-28 08:09:00,80.2,67.8,-100.00,West,263,0.0,10.0,66,0.00,,,0.00,meteohub,2013-08-28 13:09:00,
2013-08-28 08:14:00,80.8,68.0,-100.00,West,267,0.0,10.0,65,0.00,,,0.00,meteohub,2013-08-28 13:14:00,
2013-08-28 08:19:00,81.3,68.0,-100.00,WSW,250,0.0,11.0,64,0.00,,,0.00,meteohub,2013-08-28 13:19:00,
2013-08-28 08:24:00,81.9,68.5,-100.00,West,279,1.0,11.0,64,0.00,,,0.00,meteohub,2013-08-28 13:24:00,
2013-08-28 08:29:00,82.0,68.2,-100.00,West,266,0.0,11.0,63,0.00,,,0.00,meteohub,2013-08-28 13:29:00,
2013-08-28 08:34:00,82.6,68.7,-100.00,West,268,0.0,11.0,63,0.00,,,0.00,meteohub,2013-08-28 13:34:00,
2013-08-28 08:39:00,83.1,68.7,-100.00,West,265,1.0,11.0,62,0.00,,,0.00,meteohub,2013-08-28 13:39:00,
2013-08-28 08:44:00,83.8,68.9,-100.00,West,261,0.0,11.0,61,0.00,,,0.00,meteohub,2013-08-28 13:44:00,
2013-08-28 08:49:00,84.6,69.1,-100.00,West,264,0.0,11.0,60,0.00,,,0.00,meteohub,2013-08-28 13:49:00,
2013-08-28 08:54:00,84.7,69.3,-100.00,WSW,256,3.0,11.0,60,0.00,,,0.00,meteohub,2013-08-28 13:54:00,
2013-08-28 08:59:00,85.3,69.3,-100.00,WSW,257,0.0,10.0,59,0.00,,,0.00,meteohub,2013-08-28 13:59:00,
2013-08-28 09:04:00,85.8,69.8,-100.00,SW,236,0.0,10.0,59,0.00,,,0.00,meteohub,2013-08-28 14:04:00,
2013-08-28 09:09:00,86.2,69.6,-100.00,West,259,4.0,9.0,58,0.00,,,0.00,meteohub,2013-08-28 14:09:00,
2013-08-28 09:14:00,86.0,69.4,-100.00,West,263,4.0,12.0,58,0.00,,,0.00,meteohub,2013-08-28 14:14:00,
2013-08-28 09:19:00,86.5,70.0,-100.00,West,272,0.0,16.0,58,0.00,,,0.00,meteohub,2013-08-28 14:19:00,
2013-08-28 09:24:00,87.3,70.2,-100.00,SW,234,6.0,16.0,57,0.00,,,0.00,meteohub,2013-08-28 14:24:00,
2013-08-28 09:29:00,87.4,70.3,-100.00,West,265,4.0,16.0,57,0.00,,,0.00,meteohub,2013-08-28 14:29:00,
2013-08-28 09:34:00,88.0,70.9,-100.00,West,281,8.0,12.0,57,0.00,,,0.00,meteohub,2013-08-28 14:34:00,
2013-08-28 09:39:00,88.5,70.9,-100.00,West,280,1.0,12.0,56,0.00,,,0.00,meteohub,2013-08-28 14:39:00,
2013-08-28 09:44:00,88.9,71.1,-100.00,West,259,0.0,12.0,56,0.00,,,0.00,meteohub,2013-08-28 14:44:00,
2013-08-28 09:49:00,89.6,71.2,-100.00,West,263,4.0,12.0,55,0.00,,,0.00,meteohub,2013-08-28 14:49:00,
2013-08-28 09:54:00,89.2,70.9,-100.00,West,266,0.0,12.0,55,0.00,,,0.00,meteohub,2013-08-28 14:54:00,
2013-08-28 09:59:00,89.8,70.9,-100.00,West,262,11.0,13.0,54,0.00,,,0.00,meteohub,2013-08-28 14:59:00,
2013-08-28 10:04:00,90.1,71.2,-100.00,West,267,5.0,16.0,54,0.00,,,0.00,meteohub,2013-08-28 15:04:00,
2013-08-28 10:09:00,90.5,71.6,-100.00,WSW,240,0.0,16.0,54,0.00,,,0.00,meteohub,2013-08-28 15:09:00,
2013-08-28 10:14:00,90.9,72.5,-100.00,WSW,243,1.0,18.0,55,0.00,,,0.00,meteohub,2013-08-28 15:14:00,
2013-08-28 10:19:00,91.4,72.3,-100.00,WNW,284,8.0,18.0,54,0.00,,,0.00,meteohub,2013-08-28 15:19:00,
2013-08-28 10:24:00,91.8,71.6,-100.00,West,268,2.0,18.0,52,0.00,,,0.00,meteohub,2013-08-28 15:24:00,
2013-08-28 10:29:00,91.8,72.1,-100.00,NW,313,1.0,12.0,53,0.00,,,0.00,meteohub,2013-08-28 15:29:00,
2013-08-28 10:34:00,92.3,72.1,-100.00,WSW,238,7.0,12.0,52,0.00,,,0.00,meteohub,2013-08-28 15:34:00,
2013-08-28 10:39:00,92.5,72.3,-100.00,WNW,288,7.0,12.0,52,0.00,,,0.00,meteohub,2013-08-28 15:39:00,
2013-08-28 10:44:00,92.8,72.0,-100.00,SW,232,6.0,13.0,51,0.00,,,0.00,meteohub,2013-08-28 15:44:00,
2013-08-28 10:49:00,93.6,72.7,-100.00,WNW,298,4.0,15.0,51,0.00,,,0.00,meteohub,2013-08-28 15:49:00,
2013-08-28 10:54:00,94.6,73.0,-100.00,SW,225,0.0,15.0,50,0.00,,,0.00,meteohub,2013-08-28 15:54:00,
2013-08-28 10:59:00,95.0,72.9,-100.00,West,269,0.0,15.0,49,0.00,,,0.00,meteohub,2013-08-28 15:59:00,
2013-08-28 11:05:00,95.5,73.4,-100.00,WNW,286,6.0,13.0,49,0.00,,,0.00,meteohub,2013-08-28 16:05:00,
2013-08-28 11:10:00,95.9,73.0,-100.00,West,269,0.0,10.0,48,0.00,,,0.00,meteohub,2013-08-28 16:10:00,
2013-08-28 11:15:00,96.3,73.4,-100.00,SW,232,0.0,10.0,48,0.00,,,0.00,meteohub,2013-08-28 16:15:00,
2013-08-28 11:20:00,96.3,72.7,-100.00,SW,230,3.0,10.0,47,0.00,,,0.00,meteohub,2013-08-28 16:20:00,
2013-08-28 11:25:00,94.6,72.0,-100.00,SW,230,5.0,10.0,48,0.00,,,0.00,meteohub,2013-08-28 16:25:00,
2013-08-28 11:30:00,94.3,72.1,-100.00,West,273,0.0,17.0,49,0.00,,,0.00,meteohub,2013-08-28 16:30:00,
2013-08-28 11:35:00,95.2,72.3,-100.00,SSE,160,2.0,17.0,48,0.00,,,0.00,meteohub,2013-08-28 16:35:00,
2013-08-28 11:40:00,95.9,72.5,-100.00,West,277,12.0,17.0,47,0.00,,,0.00,meteohub,2013-08-28 16:40:00,
2013-08-28 11:45:00,96.4,72.3,-100.00,WSW,250,0.0,12.0,46,0.00,,,0.00,meteohub,2013-08-28 16:45:00,
2013-08-28 11:50:00,96.4,72.9,-100.00,SW,227,6.0,15.0,47,0.00,,,0.00,meteohub,2013-08-28 16:50:00,
2013-08-28 11:55:00,95.9,73.0,-100.00,SSW,211,11.0,15.0,48,0.00,,,0.00,meteohub,2013-08-28 16:55:00,
2013-08-28 12:00:00,95.4,72.0,-100.00,SW,224,4.0,18.0,47,0.00,,,0.00,meteohub,2013-08-28 17:00:00,
2013-08-28 12:05:00,95.4,72.0,-100.00,SW,234,0.0,18.0,47,0.00,,,0.00,meteohub,2013-08-28 17:05:00,
2013-08-28 12:10:00,95.5,72.1,-100.00,SW,219,4.0,16.0,47,0.00,,,0.00,meteohub,2013-08-28 17:10:00,
2013-08-28 12:15:00,95.5,72.1,-100.00,West,268,0.0,16.0,47,0.00,,,0.00,meteohub,2013-08-28 17:15:00,
2013-08-28 12:20:00,96.1,72.5,-100.00,SW,235,0.0,15.0,47,0.00,,,0.00,meteohub,2013-08-28 17:20:00,
2013-08-28 12:25:00,96.3,72.7,-100.00,WNW,288,3.0,15.0,47,0.00,,,0.00,meteohub,2013-08-28 17:25:00,
2013-08-28 12:30:00,96.3,72.1,-100.00,West,268,12.0,15.0,46,0.00,,,0.00,meteohub,2013-08-28 17:30:00,
2013-08-28 12:35:00,96.6,73.0,-100.00,SW,220,0.0,15.0,47,0.00,,,0.00,meteohub,2013-08-28 17:35:00,
2013-08-28 12:40:00,97.7,72.7,-100.00,SW,221,12.0,20.0,45,0.00,,,0.00,meteohub,2013-08-28 17:40:00,
2013-08-28 12:45:00,97.7,72.7,-100.00,WSW,253,3.0,20.0,45,0.00,,,0.00,meteohub,2013-08-28 17:45:00,
2013-08-28 12:50:00,97.9,72.3,-100.00,SW,226,0.0,16.0,44,0.00,,,0.00,meteohub,2013-08-28 17:50:00,
2013-08-28 12:55:00,98.8,72.3,-100.00,WNW,282,1.0,16.0,43,0.00,,,0.00,meteohub,2013-08-28 17:55:00,
2013-08-28 13:00:00,99.7,72.5,-100.00,WSW,258,0.0,12.0,42,0.00,,,0.00,meteohub,2013-08-28 18:00:00,
2013-08-28 13:05:00,100.0,71.4,-100.00,WNW,286,10.0,12.0,40,0.00,,,0.00,meteohub,2013-08-28 18:05:00,
2013-08-28 13:10:00,100.2,72.3,-100.00,WNW,288,2.0,12.0,41,0.00,,,0.00,meteohub,2013-08-28 18:10:00,
2013-08-28 13:15:00,100.8,71.2,-100.00,West,275,3.0,12.0,39,0.00,,,0.00,meteohub,2013-08-28 18:15:00,
2013-08-28 13:20:00,100.8,71.2,-100.00,West,272,0.0,12.0,39,0.00,,,0.00,meteohub,2013-08-28 18:20:00,
2013-08-28 13:25:00,100.9,71.4,-100.00,West,279,7.0,13.0,39,0.00,,,0.00,meteohub,2013-08-28 18:25:00,
2013-08-28 13:30:00,100.9,71.4,-100.00,West,281,0.0,13.0,39,0.00,,,0.00,meteohub,2013-08-28 18:30:00,
2013-08-28 13:35:00,101.1,70.9,-100.00,West,269,7.0,16.0,38,0.00,,,0.00,meteohub,2013-08-28 18:35:00,
2013-08-28 13:40:00,100.8,71.2,-100.00,WNW,290,0.0,16.0,39,0.00,,,0.00,meteohub,2013-08-28 18:40:00,
2013-08-28 13:45:00,100.2,71.6,-100.00,West,262,7.0,14.0,40,0.00,,,0.00,meteohub,2013-08-28 18:45:00,
2013-08-28 13:50:00,100.2,71.6,-100.00,West,277,1.0,14.0,40,0.00,,,0.00,meteohub,2013-08-28 18:50:00,
2013-08-28 13:55:00,100.9,71.4,-100.00,SW,230,9.0,14.0,39,0.00,,,0.00,meteohub,2013-08-28 18:55:00,
2013-08-28 14:00:00,100.8,71.2,-100.00,WNW,288,2.0,14.0,39,0.00,,,0.00,meteohub,2013-08-28 19:00:00,
2013-08-28 14:05:00,100.6,71.8,-100.00,SW,236,5.0,12.0,40,0.00,,,0.00,meteohub,2013-08-28 19:05:00,
2013-08-28 14:10:00,100.6,71.1,-100.00,West,267,11.0,16.0,39,0.00,,,0.00,meteohub,2013-08-28 19:10:00,
2013-08-28 14:15:00,100.9,70.7,-100.00,WSW,240,0.0,16.0,38,0.00,,,0.00,meteohub,2013-08-28 19:15:00,
2013-08-28 14:20:00,100.6,70.3,-100.00,WNW,289,2.0,16.0,38,0.00,,,0.00,meteohub,2013-08-28 19:20:00,
2013-08-28 14:25:00,100.9,71.4,-100.00,West,272,1.0,14.0,39,0.00,,,0.00,meteohub,2013-08-28 19:25:00,
2013-08-28 14:30:00,101.7,71.2,-100.00,WSW,238,2.0,14.0,38,0.00,,,0.00,meteohub,2013-08-28 19:30:00,
2013-08-28 14:35:00,101.1,71.6,-100.00,West,265,0.0,14.0,39,0.00,,,0.00,meteohub,2013-08-28 19:35:00,
2013-08-28 14:40:00,100.9,71.4,-100.00,West,281,6.0,11.0,39,0.00,,,0.00,meteohub,2013-08-28 19:40:00,
2013-08-28 14:45:00,100.9,71.4,-100.00,WSW,255,6.0,11.0,39,0.00,,,0.00,meteohub,2013-08-28 19:45:00,
2013-08-28 14:50:00,100.9,70.7,-100.00,WNW,290,7.0,16.0,38,0.00,,,0.00,meteohub,2013-08-28 19:50:00,
2013-08-28 14:55:00,101.1,71.6,-100.00,WSW,254,2.0,12.0,39,0.00,,,0.00,meteohub,2013-08-28 19:55:00,
2013-08-28 15:00:00,101.7,71.2,-100.00,WNW,284,1.0,12.0,38,0.00,,,0.00,meteohub,2013-08-28 20:00:00,
2013-08-28 15:05:00,101.8,70.7,-100.00,SW,225,2.0,10.0,37,0.00,,,0.00,meteohub,2013-08-28 20:05:00,
2013-08-28 15:10:00,101.5,71.1,-100.00,WSW,244,4.0,10.0,38,0.00,,,0.00,meteohub,2013-08-28 20:10:00,
2013-08-28 15:15:00,101.5,72.0,-100.00,SW,223,4.0,11.0,39,0.00,,,0.00,meteohub,2013-08-28 20:15:00,
2013-08-28 15:20:00,101.7,70.5,-100.00,WNW,296,1.0,11.0,37,0.00,,,0.00,meteohub,2013-08-28 20:20:00,
2013-08-28 15:25:00,101.5,70.3,-100.00,West,268,2.0,13.0,37,0.00,,,0.00,meteohub,2013-08-28 20:25:00,
2013-08-28 15:30:00,101.5,71.1,-100.00,WSW,238,5.0,13.0,38,0.00,,,0.00,meteohub,2013-08-28 20:30:00,
2013-08-28 15:35:00,101.7,71.2,-100.00,WNW,299,3.0,13.0,38,0.00,,,0.00,meteohub,2013-08-28 20:35:00,
2013-08-28 15:40:00,101.8,70.7,-100.00,WNW,298,4.0,9.0,37,0.00,,,0.00,meteohub,2013-08-28 20:40:00,
2013-08-28 15:45:00,101.5,70.3,-100.00,West,279,4.0,7.0,37,0.00,,,0.00,meteohub,2013-08-28 20:45:00,
2013-08-28 15:50:00,101.7,71.2,-100.00,WSW,246,0.0,10.0,38,0.00,,,0.00,meteohub,2013-08-28 20:50:00,
2013-08-28 15:55:00,101.8,70.7,-100.00,SW,225,0.0,10.0,37,0.00,,,0.00,meteohub,2013-08-28 20:55:00,
2013-08-28 16:00:00,101.7,71.2,-100.00,WNW,286,3.0,10.0,38,0.00,,,0.00,meteohub,2013-08-28 21:00:00,
2013-08-28 16:05:00,101.1,71.6,-100.00,SSW,208,3.0,10.0,39,0.00,,,0.00,meteohub,2013-08-28 21:05:00,
2013-08-28 16:10:00,100.6,70.3,-100.00,SW,214,0.0,10.0,38,0.00,,,0.00,meteohub,2013-08-28 21:10:00,
2013-08-28 16:15:00,100.6,69.6,-100.00,SW,226,2.0,7.0,37,0.00,,,0.00,meteohub,2013-08-28 21:15:00,
2013-08-28 16:20:00,100.8,71.2,-100.00,WSW,237,2.0,7.0,39,0.00,,,0.00,meteohub,2013-08-28 21:20:00,
2013-08-28 16:25:00,100.9,71.4,-100.00,WNW,294,2.0,7.0,39,0.00,,,0.00,meteohub,2013-08-28 21:25:00,
2013-08-28 16:30:00,100.8,69.8,-100.00,WNW,286,1.0,7.0,37,0.00,,,0.00,meteohub,2013-08-28 21:30:00,
2013-08-28 16:35:00,100.0,69.8,-100.00,SW,234,4.0,10.0,38,0.00,,,0.00,meteohub,2013-08-28 21:35:00,
2013-08-28 16:40:00,99.3,70.0,-100.00,SW,214,2.0,10.0,39,0.00,,,0.00,meteohub,2013-08-28 21:40:00,
2013-08-28 16:45:00,98.8,69.4,-100.00,SW,215,0.0,10.0,39,0.00,,,0.00,meteohub,2013-08-28 21:45:00,
2013-08-28 16:50:00,99.1,71.2,-100.00,SW,215,1.0,8.0,41,0.00,,,0.00,meteohub,2013-08-28 21:50:00,
2013-08-28 16:55:00,99.9,71.2,-100.00,WSW,237,3.0,8.0,40,0.00,,,0.00,meteohub,2013-08-28 21:55:00,
2013-08-28 17:00:00,100.0,70.7,-100.00,WSW,250,0.0,5.0,39,0.00,,,0.00,meteohub,2013-08-28 22:00:00,
2013-08-28 17:05:00,99.9,69.6,-100.00,WSW,241,0.0,6.0,38,0.00,,,0.00,meteohub,2013-08-28 22:05:00,
2013-08-28 17:10:00,99.1,70.5,-100.00,SSW,213,1.0,9.0,40,0.00,,,0.00,meteohub,2013-08-28 22:10:00,
2013-08-28 17:15:00,98.6,70.2,-100.00,WSW,238,4.0,10.0,40,0.00,,,0.00,meteohub,2013-08-28 22:15:00,
2013-08-28 17:20:00,98.1,70.3,-100.00,SSW,206,3.0,10.0,41,0.00,,,0.00,meteohub,2013-08-28 22:20:00,
2013-08-28 17:25:00,97.3,70.3,-100.00,SSW,200,2.0,10.0,42,0.00,,,0.00,meteohub,2013-08-28 22:25:00,
2013-08-28 17:30:00,97.0,70.7,-100.00,SSW,208,1.0,11.0,43,0.00,,,0.00,meteohub,2013-08-28 22:30:00,
2013-08-28 17:35:00,96.8,71.2,-100.00,SSW,212,4.0,11.0,44,0.00,,,0.00,meteohub,2013-08-28 22:35:00,
2013-08-28 17:40:00,96.4,71.6,-100.00,SSW,211,10.0,11.0,45,0.00,,,0.00,meteohub,2013-08-28 22:40:00,
2013-08-28 17:45:00,96.1,71.2,-100.00,SSW,199,5.0,10.0,45,0.00,,,0.00,meteohub,2013-08-28 22:45:00,
2013-08-28 17:50:00,95.5,72.1,-100.00,SSW,200,6.0,10.0,47,0.00,,,0.00,meteohub,2013-08-28 22:50:00,
2013-08-28 17:55:00,95.5,70.9,-100.00,SSW,212,10.0,10.0,45,0.00,,,0.00,meteohub,2013-08-28 22:55:00,
2013-08-28 18:00:00,95.2,70.5,-100.00,SSW,206,5.0,12.0,45,0.00,,,0.00,meteohub,2013-08-28 23:00:00,
2013-08-28 18:05:00,94.8,70.9,-100.00,SSW,203,7.0,12.0,46,0.00,,,0.00,meteohub,2013-08-28 23:05:00,
2013-08-28 18:10:00,94.6,70.0,-100.00,SW,221,3.0,12.0,45,0.00,,,0.00,meteohub,2013-08-28 23:10:00,
2013-08-28 18:15:00,94.5,70.5,-100.00,SSW,207,6.0,11.0,46,0.00,,,0.00,meteohub,2013-08-28 23:15:00,
2013-08-28 18:20:00,94.3,70.9,-100.00,SSW,202,3.0,11.0,47,0.00,,,0.00,meteohub,2013-08-28 23:20:00,
2013-08-28 18:25:00,94.3,71.6,-100.00,SSW,199,1.0,11.0,48,0.00,,,0.00,meteohub,2013-08-28 23:25:00,
2013-08-28 18:30:00,93.9,71.2,-100.00,SSW,212,3.0,7.0,48,0.00,,,0.00,meteohub,2013-08-28 23:30:00,
2013-08-28 18:35:00,93.7,71.6,-100.00,SSW,198,3.0,6.0,49,0.00,,,0.00,meteohub,2013-08-28 23:35:00,
2013-08-28 18:40:00,93.6,71.6,-100.00,SSW,201,4.0,6.0,49,0.00,,,0.00,meteohub,2013-08-28 23:40:00,
2013-08-28 18:45:00,93.2,71.2,-100.00,SSW,200,2.0,6.0,49,0.00,,,0.00,meteohub,2013-08-28 23:45:00,
2013-08-28 18:50:00,92.8,71.4,-100.00,SSW,200,2.0,6.0,50,0.00,,,0.00,meteohub,2013-08-28 23:50:00,
2013-08-28 18:55:00,92.5,71.8,-100.00,SSW,196,1.0,6.0,51,0.00,,,0.00,meteohub,2013-08-28 23:55:00,
2013-08-28 19:00:00,91.9,71.8,-100.00,SSW,199,2.0,6.0,52,0.00,,,0.00,meteohub,2013-08-29 00:00:00,
2013-08-28 19:05:00,91.8,71.6,-100.00,SSW,199,2.0,6.0,52,0.00,,,0.00,meteohub,2013-08-29 00:05:00,
2013-08-28 19:10:00,91.2,71.1,-100.00,SSW,198,1.0,6.0,52,0.00,,,0.00,meteohub,2013-08-29 00:10:00,
2013-08-28 19:15:00,90.9,71.4,-100.00,SSW,199,2.0,4.0,53,0.00,,,0.00,meteohub,2013-08-29 00:15:00,
2013-08-28 19:20:00,90.5,71.1,-100.00,SSW,198,2.0,4.0,53,0.00,,,0.00,meteohub,2013-08-29 00:20:00,
2013-08-28 19:25:00,90.1,71.2,-100.00,SSW,198,1.0,3.0,54,0.00,,,0.00,meteohub,2013-08-29 00:25:00,
2013-08-28 19:30:00,89.8,70.9,-100.00,SSW,198,0.0,3.0,54,0.00,,,0.00,meteohub,2013-08-29 00:30:00,
2013-08-28 19:35:00,89.2,70.3,-100.00,SSW,198,0.0,3.0,54,0.00,,,0.00,meteohub,2013-08-29 00:35:00,
2013-08-28 19:40:00,88.9,70.7,-100.00,SSW,198,0.0,3.0,55,0.00,,,0.00,meteohub,2013-08-29 00:40:00,
2013-08-28 19:45:00,88.3,70.2,-100.00,SSW,198,0.0,2.0,55,0.00,,,0.00,meteohub,2013-08-29 00:45:00,
2013-08-28 19:50:00,88.2,70.5,-100.00,SSW,198,0.0,2.0,56,0.00,,,0.00,meteohub,2013-08-29 00:50:00,
2013-08-28 19:55:00,88.0,70.3,-100.00,SSW,198,0.0,2.0,56,0.00,,,0.00,meteohub,2013-08-29 00:55:00,
2013-08-28 20:00:00,87.6,70.0,-100.00,SSW,198,1.0,3.0,56,0.00,,,0.00,meteohub,2013-08-29 01:00:00,
2013-08-28 20:05:00,87.3,70.2,-100.00,SSW,198,3.0,4.0,57,0.00,,,0.00,meteohub,2013-08-29 01:05:00,
2013-08-28 20:10:00,86.9,69.8,-100.00,SSW,198,0.0,4.0,57,0.00,,,0.00,meteohub,2013-08-29 01:10:00,
2013-08-28 20:15:00,86.7,70.2,-100.00,SSW,198,0.0,4.0,58,0.00,,,0.00,meteohub,2013-08-29 01:15:00,
2013-08-28 20:21:00,86.4,69.8,-100.00,SSW,198,0.0,4.0,58,0.00,,,0.00,meteohub,2013-08-29 01:21:00,
2013-08-28 20:26:00,86.2,69.6,-100.00,SSW,198,0.0,2.0,58,0.00,,,0.00,meteohub,2013-08-29 01:26:00,
2013-08-28 20:31:00,86.0,70.0,-100.00,SSW,198,2.0,2.0,59,0.00,,,0.00,meteohub,2013-08-29 01:31:00,
2013-08-28 20:36:00,85.8,69.8,-100.00,SSW,198,2.0,4.0,59,0.00,,,0.00,meteohub,2013-08-29 01:36:00,
2013-08-28 20:41:00,85.6,69.6,-100.00,SSW,198,1.0,4.0,59,0.00,,,0.00,meteohub,2013-08-29 01:41:00,
2013-08-28 20:46:00,85.5,69.4,-100.00,SSW,198,0.0,4.0,59,0.00,,,0.00,meteohub,2013-08-29 01:46:00,
2013-08-28 20:51:00,85.5,69.4,-100.00,SSW,198,0.0,3.0,59,0.00,,,0.00,meteohub,2013-08-29 01:51:00,
2013-08-28 20:56:00,85.3,69.3,-100.00,SSW,198,2.0,3.0,59,0.00,,,0.00,meteohub,2013-08-29 01:56:00,
2013-08-28 21:01:00,85.1,69.1,-100.00,SSW,198,0.0,4.0,59,0.00,,,0.00,meteohub,2013-08-29 02:01:00,
2013-08-28 21:06:00,84.9,69.4,-100.00,SSW,198,0.0,4.0,60,0.00,,,0.00,meteohub,2013-08-29 02:06:00,
2013-08-28 21:11:00,84.7,69.3,-100.00,SSW,198,0.0,4.0,60,0.00,,,0.00,meteohub,2013-08-29 02:11:00,
2013-08-28 21:16:00,84.7,69.3,-100.00,SSW,198,0.0,3.0,60,0.00,,,0.00,meteohub,2013-08-29 02:16:00,
2013-08-28 21:21:00,84.6,69.6,-100.00,SSW,198,0.0,3.0,61,0.00,,,0.00,meteohub,2013-08-29 02:21:00,
2013-08-28 21:26:00,84.2,69.8,-100.00,SSW,198,0.0,3.0,62,0.00,,,0.00,meteohub,2013-08-29 02:26:00,
2013-08-28 21:31:00,83.8,69.4,-100.00,SSW,198,0.0,3.0,62,0.00,,,0.00,meteohub,2013-08-29 02:31:00,
2013-08-28 21:36:00,83.7,69.3,-100.00,SSW,198,0.0,2.0,62,0.00,,,0.00,meteohub,2013-08-29 02:36:00,
2013-08-28 21:41:00,83.7,69.3,-100.00,SSW,200,2.0,4.0,62,0.00,,,0.00,meteohub,2013-08-29 02:41:00,
2013-08-28 21:46:00,83.7,69.3,-100.00,SSW,200,0.0,4.0,62,0.00,,,0.00,meteohub,2013-08-29 02:46:00,
2013-08-28 21:51:00,83.7,68.7,-100.00,SSW,200,3.0,5.0,61,0.00,,,0.00,meteohub,2013-08-29 02:51:00,
2013-08-28 21:56:00,83.7,68.7,-100.00,SSW,208,3.0,5.0,61,0.00,,,0.00,meteohub,2013-08-29 02:56:00,
2013-08-28 22:01:00,83.7,68.7,-100.00,SSW,208,0.0,5.0,61,0.00,,,0.00,meteohub,2013-08-29 03:01:00,
2013-08-28 22:06:00,83.7,68.4,-100.00,SW,215,4.0,5.0,60,0.00,,,0.00,meteohub,2013-08-29 03:06:00,
2013-08-28 22:11:00,83.7,68.4,-100.00,SW,217,2.0,6.0,60,0.00,,,0.00,meteohub,2013-08-29 03:11:00,
2013-08-28 22:16:00,83.7,68.4,-100.00,SW,219,2.0,6.0,60,0.00,,,0.00,meteohub,2013-08-29 03:16:00,
2013-08-28 22:21:00,83.5,68.2,-100.00,SW,219,2.0,6.0,60,0.00,,,0.00,meteohub,2013-08-29 03:21:00,
2013-08-28 22:26:00,83.5,68.2,-100.00,SW,226,1.0,7.0,60,0.00,,,0.00,meteohub,2013-08-29 03:26:00,
2013-08-28 22:31:00,83.1,67.8,-100.00,SW,227,1.0,7.0,60,0.00,,,0.00,meteohub,2013-08-29 03:31:00,
2013-08-28 22:36:00,83.1,67.8,-100.00,SW,227,0.0,7.0,60,0.00,,,0.00,meteohub,2013-08-29 03:36:00,
2013-08-28 22:41:00,82.9,68.2,-100.00,SW,226,0.0,4.0,61,0.00,,,0.00,meteohub,2013-08-29 03:41:00,
2013-08-28 22:46:00,82.8,68.0,-100.00,SW,227,3.0,4.0,61,0.00,,,0.00,meteohub,2013-08-29 03:46:00,
2013-08-28 22:51:00,82.6,67.8,-100.00,SW,227,0.0,3.0,61,0.00,,,0.00,meteohub,2013-08-29 03:51:00,
2013-08-28 22:56:00,82.2,67.5,-100.00,SW,226,0.0,3.0,61,0.00,,,0.00,meteohub,2013-08-29 03:56:00,
2013-08-28 23:01:00,82.2,67.5,-100.00,SW,226,2.0,5.0,61,0.00,,,0.00,meteohub,2013-08-29 04:01:00,
2013-08-28 23:02:00,82.2,67.5,-100.00,SW,226,2.0,5.0,61,0.00,,,0.00,meteohub,2013-08-29 04:02:00,
2013-08-28 23:04:00,82.0,67.3,-100.00,SW,226,1.0,5.0,61,0.00,,,0.00,meteohub,2013-08-29 04:04:00,
2013-08-28 23:05:00,82.0,67.3,-100.00,SW,226,0.0,5.0,61,0.00,,,0.00,meteohub,2013-08-29 04:05:00,
2013-08-28 23:10:00,82.0,67.3,-100.00,SW,226,0.0,5.0,61,0.00,,,0.00,meteohub,2013-08-29 04:10:00,
2013-08-28 23:15:00,81.9,67.1,-100.00,SW,226,0.0,4.0,61,0.00,,,0.00,meteohub,2013-08-29 04:15:00,
2013-08-28 23:20:00,81.9,67.1,-100.00,WSW,240,0.0,4.0,61,0.00,,,0.00,meteohub,2013-08-29 04:20:00,
2013-08-28 23:25:00,81.7,66.9,-100.00,WSW,240,0.0,5.0,61,0.00,,,0.00,meteohub,2013-08-29 04:25:00,
2013-08-28 23:30:00,81.5,66.7,-100.00,WSW,241,0.0,5.0,61,0.00,,,0.00,meteohub,2013-08-29 04:30:00,
2013-08-28 23:35:00,81.3,67.1,-100.00,WSW,241,0.0,5.0,62,0.00,,,0.00,meteohub,2013-08-29 04:35:00,
2013-08-28 23:40:00,81.3,67.1,-100.00,WSW,241,0.0,3.0,62,0.00,,,0.00,meteohub,2013-08-29 04:40:00,
2013-08-28 23:45:00,81.1,66.9,-100.00,West,263,0.0,3.0,62,0.00,,,0.00,meteohub,2013-08-29 04:45:00,
2013-08-28 23:50:00,81.1,66.4,-100.00,West,263,0.0,3.0,61,0.00,,,0.00,meteohub,2013-08-29 04:50:00,
2013-08-28 23:55:00,81.1,66.4,-100.00,West,268,4.0,4.0,61,0.00,,,0.00,meteohub,2013-08-29 04:55:00,